Time,TemperatureF,DewpointF,PressureIn,WindDirection,WindDirectionDegrees,WindSpeedMPH,WindSpeedGustMPH,Humidity,HourlyPrecipIn,Conditions,Clouds,dailyrainin,SoftwareType,DateUTC
2013-01-19 00:04:00,14.0,8.0,-100.00,South,185,1.0,4.0,75,0.00,,,-99.99,,2013-01-19 05:04:00,
2013-01-19 00:12:00,16.0,9.0,-100.00,SW,225,1.0,4.0,72,0.00,,,-99.99,,2013-01-19 05:12:00,
2013-01-19 00:23:00,18.0,6.0,-100.00,South,190,1.0,6.0,59,0.00,,,-99.99,,2013-01-19 05:23:00,
2013-01-19 00:33:00,19.0,5.0,-100.00,South,185,1.0,4.0,54,0.00,,,-99.99,,2013-01-19 05:33:00,
2013-01-19 00:43:00,19.0,5.0,-100.00,SW,225,2.0,6.0,54,0.00,,,-99.99,,2013-01-19 05:43:00,
2013-01-19 00:52:00,20.0,5.0,-100.00,South,175,2.0,5.0,52,0.00,,,-99.99,,2013-01-19 05:52:00,
2013-01-19 01:02:00,20.0,5.0,-100.00,SSW,210,2.0,7.0,53,0.00,,,-99.99,,2013-01-19 06:02:00,
2013-01-19 01:12:00,20.0,5.0,-100.00,South,190,3.0,7.0,51,0.00,,,-99.99,,2013-01-19 06:12:00,
2013-01-19 01:22:00,20.0,5.0,-100.00,South,185,2.0,9.0,51,0.00,,,-99.99,,2013-01-19 06:22:00,
2013-01-19 01:32:00,21.0,6.0,-100.00,SSE,165,2.0,6.0,51,0.00,,,-99.99,,2013-01-19 06:32:00,
2013-01-19 01:43:00,21.0,6.0,-100.00,SSE,160,1.0,7.0,51,0.00,,,-99.99,,2013-01-19 06:43:00,
2013-01-19 01:52:00,21.0,6.0,-100.00,South,180,3.0,6.0,50,0.00,,,-99.99,,2013-01-19 06:52:00,
2013-01-19 02:02:00,21.0,6.0,-100.00,SSE,165,4.0,7.0,50,0.00,,,-99.99,,2013-01-19 07:02:00,
2013-01-19 02:12:00,21.0,6.0,-100.00,WSW,240,2.0,6.0,51,0.00,,,-99.99,,2013-01-19 07:12:00,
2013-01-19 02:22:00,22.0,7.0,-100.00,South,175,2.0,4.0,52,0.00,,,-99.99,,2013-01-19 07:22:00,
2013-01-19 02:33:00,22.0,7.0,-100.00,SSW,205,2.0,4.0,51,0.00,,,-99.99,,2013-01-19 07:33:00,
2013-01-19 02:43:00,22.0,7.0,-100.00,South,185,2.0,4.0,51,0.00,,,-99.99,,2013-01-19 07:43:00,
2013-01-19 02:52:00,22.0,8.0,-100.00,SSW,200,1.0,4.0,53,0.00,,,-99.99,,2013-01-19 07:52:00,
2013-01-19 03:02:00,22.0,8.0,-100.00,South,190,2.0,4.0,53,0.00,,,-99.99,,2013-01-19 08:02:00,
2013-01-19 03:12:00,22.0,8.0,-100.00,SW,215,1.0,4.0,53,0.00,,,-99.99,,2013-01-19 08:12:00,
2013-01-19 03:22:00,22.0,8.0,-100.00,SW,220,1.0,3.0,54,0.00,,,-99.99,,2013-01-19 08:22:00,
2013-01-19 03:32:00,22.0,8.0,-100.00,SW,230,1.0,4.0,54,0.00,,,-99.99,,2013-01-19 08:32:00,
2013-01-19 03:43:00,22.0,9.0,-100.00,SW,215,1.0,4.0,57,0.00,,,-99.99,,2013-01-19 08:43:00,
2013-01-19 03:52:00,22.0,9.0,-100.00,SW,230,1.0,3.0,56,0.00,,,-99.99,,2013-01-19 08:52:00,
2013-01-19 04:02:00,23.0,10.0,-100.00,SSW,210,2.0,4.0,56,0.00,,,-99.99,,2013-01-19 09:02:00,
2013-01-19 04:12:00,23.0,9.0,-100.00,SW,215,1.0,5.0,55,0.00,,,-99.99,,2013-01-19 09:12:00,
2013-01-19 04:23:00,24.0,10.0,-100.00,SSW,200,2.0,6.0,54,0.00,,,-99.99,,2013-01-19 09:23:00,
2013-01-19 04:33:00,25.0,10.0,-100.00,SSW,195,4.0,9.0,52,0.00,,,-99.99,,2013-01-19 09:33:00,
2013-01-19 04:42:00,26.0,10.0,-100.00,SW,215,4.0,6.0,52,0.00,,,-99.99,,2013-01-19 09:42:00,
2013-01-19 04:52:00,26.0,11.0,-100.00,SW,230,4.0,10.0,51,0.00,,,-99.99,,2013-01-19 09:52:00,
2013-01-19 05:02:00,26.0,11.0,-100.00,SSW,200,4.0,9.0,51,0.00,,,-99.99,,2013-01-19 10:02:00,
2013-01-19 05:12:00,26.0,11.0,-100.00,SW,215,1.0,6.0,53,0.00,,,-99.99,,2013-01-19 10:12:00,
2013-01-19 05:22:00,26.0,11.0,-100.00,South,170,4.0,7.0,53,0.00,,,-99.99,,2013-01-19 10:22:00,
2013-01-19 05:32:00,26.0,11.0,-100.00,SW,215,4.0,8.0,53,0.00,,,-99.99,,2013-01-19 10:32:00,
2013-01-19 05:42:00,26.0,12.0,-100.00,SW,225,2.0,9.0,53,0.00,,,-99.99,,2013-01-19 10:42:00,
2013-01-19 05:52:00,26.0,12.0,-100.00,SW,225,2.0,7.0,53,0.00,,,-99.99,,2013-01-19 10:52:00,
2013-01-19 06:03:00,26.0,12.0,-100.00,South,190,3.0,6.0,54,0.00,,,-99.99,,2013-01-19 11:03:00,
2013-01-19 06:12:00,27.0,13.0,-100.00,SSW,205,3.0,7.0,55,0.00,,,-99.99,,2013-01-19 11:12:00,
2013-01-19 07:48:00,28.0,14.0,-100.00,SW,225,5.0,9.0,55,0.00,,,-99.99,,2013-01-19 12:48:00,
2013-01-19 07:53:00,28.0,15.0,-100.00,SW,220,3.0,7.0,56,0.00,,,-99.99,,2013-01-19 12:53:00,
2013-01-19 08:03:00,29.0,15.0,-100.00,SW,220,4.0,8.0,56,0.00,,,-99.99,,2013-01-19 13:03:00,
2013-01-19 08:12:00,29.0,15.0,-100.00,SW,225,4.0,9.0,54,0.00,,,-99.99,,2013-01-19 13:12:00,
2013-01-19 08:22:00,29.0,15.0,-100.00,SW,235,4.0,9.0,55,0.00,,,-99.99,,2013-01-19 13:22:00,
2013-01-19 08:33:00,30.0,15.0,-100.00,SW,235,4.0,9.0,54,0.00,,,-99.99,,2013-01-19 13:33:00,
2013-01-19 08:43:00,30.0,16.0,-100.00,WSW,245,4.0,9.0,54,0.00,,,-99.99,,2013-01-19 13:43:00,
2013-01-19 08:53:00,31.0,16.0,-100.00,SSW,205,4.0,9.0,54,0.00,,,-99.99,,2013-01-19 13:53:00,
2013-01-19 09:03:00,31.0,16.0,-100.00,WSW,240,4.0,9.0,52,0.00,,,-99.99,,2013-01-19 14:03:00,
2013-01-19 09:12:00,32.0,17.0,-100.00,SSW,195,3.0,8.0,53,0.00,,,-99.99,,2013-01-19 14:12:00,
2013-01-19 09:23:00,32.0,17.0,-100.00,SSW,210,2.0,6.0,52,0.00,,,-99.99,,2013-01-19 14:23:00,
2013-01-19 09:34:00,33.0,17.0,-100.00,SW,225,6.0,10.0,50,0.00,,,-99.99,,2013-01-19 14:34:00,
2013-01-19 09:43:00,34.0,18.0,-100.00,SW,220,3.0,10.0,50,0.00,,,-99.99,,2013-01-19 14:43:00,
2013-01-19 09:53:00,35.0,18.0,-100.00,WSW,240,6.0,10.0,49,0.00,,,-99.99,,2013-01-19 14:53:00,
2013-01-19 10:03:00,36.0,18.0,-100.00,SSW,210,6.0,15.0,48,0.00,,,-99.99,,2013-01-19 15:03:00,
2013-01-19 10:13:00,37.0,18.0,-100.00,WSW,240,7.0,13.0,46,0.00,,,-99.99,,2013-01-19 15:13:00,
2013-01-19 10:23:00,37.0,19.0,-100.00,SW,220,9.0,18.0,47,0.00,,,-99.99,,2013-01-19 15:23:00,
2013-01-19 10:33:00,38.0,19.0,-100.00,SSW,210,7.0,14.0,46,0.00,,,-99.99,,2013-01-19 15:33:00,
2013-01-19 10:43:00,39.0,19.0,-100.00,WSW,245,5.0,16.0,45,0.00,,,-99.99,,2013-01-19 15:43:00,
2013-01-19 10:53:00,39.0,19.0,-100.00,SW,235,7.0,15.0,43,0.00,,,-99.99,,2013-01-19 15:53:00,
2013-01-19 11:03:00,40.0,20.0,-100.00,SW,235,7.0,19.0,43,0.00,,,-99.99,,2013-01-19 16:03:00,
2013-01-19 11:13:00,40.0,19.0,-100.00,SW,220,9.0,20.0,43,0.00,,,-99.99,,2013-01-19 16:13:00,
2013-01-19 11:23:00,40.0,20.0,-100.00,SW,215,5.0,20.0,43,0.00,,,-99.99,,2013-01-19 16:23:00,
2013-01-19 11:33:00,40.0,20.0,-100.00,SW,215,9.0,17.0,43,0.00,,,-99.99,,2013-01-19 16:33:00,
2013-01-19 11:43:00,40.0,19.0,-100.00,SW,225,12.0,22.0,42,0.00,,,-99.99,,2013-01-19 16:43:00,
2013-01-19 11:53:00,41.0,19.0,-100.00,SW,215,7.0,21.0,41,0.00,,,-99.99,,2013-01-19 16:53:00,
2013-01-19 12:03:00,41.0,20.0,-100.00,SSW,200,7.0,24.0,42,0.00,,,-99.99,,2013-01-19 17:03:00,
2013-01-19 12:29:00,41.0,20.0,-100.00,SSW,210,9.0,20.0,41,0.00,,,-99.99,,2013-01-19 17:29:00,
2013-01-19 12:35:00,42.0,20.0,-100.00,West,260,8.0,18.0,40,0.00,,,-99.99,,2013-01-19 17:35:00,
2013-01-19 12:48:00,42.0,19.0,-100.00,SW,235,9.0,19.0,40,0.00,,,-99.99,,2013-01-19 17:48:00,
2013-01-19 13:12:00,43.0,20.0,-100.00,SW,230,7.0,17.0,39,0.00,,,-99.99,,2013-01-19 18:12:00,
2013-01-19 13:27:00,44.0,20.0,-100.00,SW,220,5.0,16.0,39,0.00,,,-99.99,,2013-01-19 18:27:00,
2013-01-19 13:35:00,44.0,20.0,-100.00,West,260,7.0,19.0,38,0.00,,,-99.99,,2013-01-19 18:35:00,
2013-01-19 13:45:00,44.0,21.0,-100.00,WSW,240,6.0,16.0,40,0.00,,,-99.99,,2013-01-19 18:45:00,
2013-01-19 13:55:00,43.0,20.0,-100.00,SW,220,11.0,19.0,39,0.00,,,-99.99,,2013-01-19 18:55:00,
2013-01-19 14:09:00,44.0,21.0,-100.00,SW,220,10.0,17.0,40,0.00,,,-99.99,,2013-01-19 19:09:00,
2013-01-19 14:20:00,44.0,21.0,-100.00,SW,235,9.0,16.0,39,0.00,,,-99.99,,2013-01-19 19:20:00,
2013-01-19 14:30:00,44.0,20.0,-100.00,SW,225,8.0,14.0,39,0.00,,,-99.99,,2013-01-19 19:30:00,
2013-01-19 14:39:00,44.0,21.0,-100.00,SW,230,9.0,19.0,40,0.00,,,-99.99,,2013-01-19 19:39:00,
2013-01-19 14:46:00,44.0,21.0,-100.00,WSW,250,6.0,20.0,39,0.00,,,-99.99,,2013-01-19 19:46:00,
2013-01-19 14:54:00,44.0,21.0,-100.00,SW,235,6.0,21.0,40,0.00,,,-99.99,,2013-01-19 19:54:00,
2013-01-19 15:10:00,44.0,21.0,-100.00,WSW,240,8.0,14.0,39,0.00,,,-99.99,,2013-01-19 20:10:00,
2013-01-19 15:19:00,44.0,21.0,-100.00,WSW,255,7.0,16.0,39,0.00,,,-99.99,,2013-01-19 20:19:00,
2013-01-19 15:25:00,45.0,21.0,-100.00,SW,235,4.0,12.0,38,0.00,,,-99.99,,2013-01-19 20:25:00,
2013-01-19 15:38:00,44.0,21.0,-100.00,SW,230,7.0,14.0,39,0.00,,,-99.99,,2013-01-19 20:38:00,
2013-01-19 15:48:00,44.0,21.0,-100.00,SW,220,5.0,12.0,40,0.00,,,-99.99,,2013-01-19 20:48:00,
2013-01-19 15:54:00,44.0,21.0,-100.00,SW,215,11.0,15.0,39,0.00,,,-99.99,,2013-01-19 20:54:00,
2013-01-19 16:07:00,44.0,22.0,-100.00,WSW,240,6.0,11.0,40,0.00,,,-99.99,,2013-01-19 21:07:00,
2013-01-19 16:14:00,44.0,23.0,-100.00,SW,215,5.0,12.0,42,0.00,,,-99.99,,2013-01-19 21:14:00,
2013-01-19 16:26:00,44.0,22.0,-100.00,SW,235,4.0,11.0,42,0.00,,,-99.99,,2013-01-19 21:26:00,
2013-01-19 16:44:00,44.0,22.0,-100.00,SSW,210,6.0,11.0,41,0.00,,,-99.99,,2013-01-19 21:44:00,
2013-01-19 16:50:00,44.0,22.0,-100.00,WSW,250,4.0,12.0,42,0.00,,,-99.99,,2013-01-19 21:50:00,
2013-01-19 16:56:00,43.0,22.0,-100.00,WSW,240,4.0,11.0,42,0.00,,,-99.99,,2013-01-19 21:56:00,
2013-01-19 17:14:00,43.0,23.0,-100.00,SSW,205,4.0,11.0,43,0.00,,,-99.99,,2013-01-19 22:14:00,
2013-01-19 17:27:00,43.0,23.0,-100.00,SW,215,4.0,12.0,45,0.00,,,-99.99,,2013-01-19 22:27:00,
2013-01-19 17:35:00,43.0,23.0,-100.00,West,260,4.0,11.0,44,0.00,,,-99.99,,2013-01-19 22:35:00,
2013-01-19 17:47:00,42.0,23.0,-100.00,SW,235,2.0,7.0,46,0.00,,,-99.99,,2013-01-19 22:47:00,
2013-01-19 17:54:00,41.0,23.0,-100.00,SSW,200,1.0,5.0,48,0.00,,,-99.99,,2013-01-19 22:54:00,
2013-01-19 18:13:00,41.0,24.0,-100.00,SSW,195,1.0,2.0,51,0.00,,,-99.99,,2013-01-19 23:13:00,
2013-01-19 18:25:00,38.0,24.0,-100.00,NNW,335,1.0,2.0,56,0.00,,,-99.99,,2013-01-19 23:25:00,
2013-01-19 18:34:00,38.0,24.0,-100.00,NE,40,1.0,3.0,57,0.00,,,-99.99,,2013-01-19 23:34:00,
2013-01-19 18:45:00,37.0,25.0,-100.00,NW,325,2.0,3.0,59,0.00,,,-99.99,,2013-01-19 23:45:00,
2013-01-19 18:59:00,36.0,25.0,-100.00,NW,315,1.0,2.0,63,0.00,,,-99.99,,2013-01-19 23:59:00,
2013-01-19 19:09:00,36.0,24.0,-100.00,NW,320,1.0,2.0,63,0.00,,,-99.99,,2013-01-20 00:09:00,
2013-01-19 19:15:00,36.0,25.0,-100.00,NW,325,1.0,2.0,64,0.00,,,-99.99,,2013-01-20 00:15:00,
2013-01-19 19:35:00,35.0,25.0,-100.00,NNW,330,1.0,3.0,67,0.00,,,-99.99,,2013-01-20 00:35:00,
2013-01-19 19:46:00,34.0,25.0,-100.00,NNW,330,3.0,4.0,69,0.00,,,-99.99,,2013-01-20 00:46:00,
2013-01-19 19:54:00,34.0,25.0,-100.00,NNW,330,1.0,3.0,70,0.00,,,-99.99,,2013-01-20 00:54:00,
2013-01-19 20:20:00,32.0,24.0,-100.00,WNW,295,1.0,1.0,72,0.00,,,-99.99,,2013-01-20 01:20:00,
2013-01-19 20:27:00,31.0,24.0,-100.00,SSW,210,0.0,1.0,73,0.00,,,-99.99,,2013-01-20 01:27:00,
2013-01-19 20:37:00,31.0,23.0,-100.00,SSW,200,0.0,1.0,73,0.00,,,-99.99,,2013-01-20 01:37:00,
2013-01-19 20:48:00,31.0,24.0,-100.00,South,190,0.0,1.0,74,0.00,,,-99.99,,2013-01-20 01:48:00,
2013-01-19 20:58:00,31.0,25.0,-100.00,NNW,335,1.0,3.0,75,0.00,,,-99.99,,2013-01-20 01:58:00,
2013-01-19 21:08:00,31.0,25.0,-100.00,NNW,335,1.0,3.0,75,0.00,,,-99.99,,2013-01-20 02:08:00,
2013-01-19 21:15:00,31.0,24.0,-100.00,NNW,345,1.0,2.0,75,0.00,,,-99.99,,2013-01-20 02:15:00,
2013-01-19 21:26:00,31.0,24.0,-100.00,NNW,345,1.0,2.0,75,0.00,,,-99.99,,2013-01-20 02:26:00,
2013-01-19 21:44:00,30.0,24.0,-100.00,WSW,240,0.0,1.0,77,0.00,,,-99.99,,2013-01-20 02:44:00,
2013-01-19 21:55:00,30.0,24.0,-100.00,West,265,0.0,1.0,79,0.00,,,-99.99,,2013-01-20 02:55:00,
2013-01-19 22:08:00,29.0,24.0,-100.00,NE,35,0.0,1.0,80,0.00,,,-99.99,,2013-01-20 03:08:00,
2013-01-19 22:14:00,29.0,24.0,-100.00,NW,320,0.0,1.0,81,0.00,,,-99.99,,2013-01-20 03:14:00,
2013-01-19 22:25:00,29.0,24.0,-100.00,North,0,1.0,3.0,81,0.00,,,-99.99,,2013-01-20 03:25:00,
2013-01-19 22:38:00,29.0,24.0,-100.00,South,190,0.0,1.0,82,0.00,,,-99.99,,2013-01-20 03:38:00,
2013-01-19 22:45:00,29.0,24.0,-100.00,WSW,240,0.0,1.0,82,0.00,,,-99.99,,2013-01-20 03:45:00,
2013-01-19 22:54:00,28.0,24.0,-100.00,NW,325,0.0,1.0,83,0.00,,,-99.99,,2013-01-20 03:54:00,
2013-01-19 23:05:00,29.0,25.0,-100.00,North,0,1.0,2.0,84,0.00,,,-99.99,,2013-01-20 04:05:00,
2013-01-19 23:15:00,29.0,25.0,-100.00,ENE,65,0.0,1.0,84,0.00,,,-99.99,,2013-01-20 04:15:00,
2013-01-19 23:36:00,29.0,24.0,-100.00,NNW,335,1.0,2.0,84,0.00,,,-99.99,,2013-01-20 04:36:00,
2013-01-19 23:44:00,29.0,25.0,-100.00,NW,325,1.0,2.0,84,0.00,,,-99.99,,2013-01-20 04:44:00,
2013-01-19 23:54:00,29.0,25.0,-100.00,WSW,250,0.0,1.0,84,0.00,,,-99.99,,2013-01-20 04:54:00,